Temperature
19 19 18 18 18 18 17 17 17 17 17 17 17 17 16 16 16 16 16 16 16 16 16 16 16 15 15 15 15 15 15 15 15 15 14 14 14 14 14 14 13 13 13
19 19 18 18 17 17 17 17 17 17 17 16 16 16 16 16 16 16 16 16 15 15 15 15 15 15 15 15 15 15 15 15 14 14 14 14 13 13 13 13 13 12 12
18 18 18 18 17 17 17 17 17 16 16 16 16 16 16 15 15 15 15 15 15 15 15 15 15 15 15 15 14 14 14 14 14 14 13 13 13 13 13 12 12 12 12
18 18 18 18 17 17 17 17 16 16 16 16 16 15 15 15 15 15 15 15 15 15 14 14 14 14 14 14 14 14 14 14 14 14 13 13 12 12 12 12 12 12 11
18 18 18 17 17 17 17 16 16 16 16 15 15 15 15 15 14 14 14 14 14 14 14 14 14 14 14 14 14 14 13 13 13 13 13 12 12 12 12 12 12 11 11
18 18 17 17 17 16 16 16 16 16 15 15 15 15 14 14 14 14 14 14 14 14 14 13 13 13 13 13 13 13 13 13 13 12 12 12 12 11 11 11 11 11 11
17 17 17 16 16 16 16 16 16 15 15 15 14 14 14 14 14 14 14 14 14 13 13 13 13 13 13 12 13 13 13 13 12 12 12 11 11 11 11 11 11 11 10
17 17 16 16 16 15 15 15 15 15 15 14 14 14 14 13 14 14 14 13 13 13 13 12 12 12 12 12 12 12 12 12 12 11 11 11 11 11 11 11 10 10 10
17 16 16 16 15 15 15 15 15 14 14 14 13 13 13 13 13 13 13 13 13 12 12 12 12 12 12 12 11 11 11 11 11 11 11 11 11 11 10 10 10 11 10
16 16 16 15 15 15 15 15 14 14 14 13 13 13 13 13 13 13 12 12 12 12 11 11 11 11 11 11 11 11 10 10 10 10 10 10 10 10 10 10 10 10 10
16 16 15 15 15 15 15 14 14 14 13 13 13 12 12 12 12 12 12 12 11 11 11 11 11 11 11 11 10 10 10 10 10 10 10 10 10 9 9 9 9 9 9
16 15 15 15 14 14 14 14 14 13 13 12 12 12 12 12 12 12 12 11 11 11 11 10 10 10 10 10 10 10 10 10 10 10 10 9 9 9 9 8 8 8 8
15 15 15 14 14 14 14 13 13 13 12 12 12 12 11 11 11 11 11 11 11 10 10 10 10 10 10 9 9 9 9 9 10 10 9 9 9 8 8 8 8 8 8
15 14 14 14 13 13 13 13 13 12 12 12 12 11 11 11 11 11 10 10 10 10 10 10 9 9 9 9 9 9 9 9 9 9 9 9 9 9 8 8 9 9 9
15 14 14 13 13 13 13 12 12 12 12 12 11 11 11 10 10 10 10 10 10 10 9 9 9 9 9 9 9 9 9 9 9 9 9 9 9 9 8 8 8 8 9
14 14 13 13 13 13 12 12 12 12 12 12 11 11 10 10 10 10 10 10 10 9 9 9 9 9 9 9 9 9 8 8 8 8 8 8 8 8 8 8 8 8 8
14 13 13 13 13 12 12 12 12 11 11 11 11 11 10 10 10 10 10 9 9 9 9 9 9 9 9 9 9 8 8 8 8 8 8 8 8 8 8 8 8 8 8
13 13 13 13 12 12 12 12 12 11 11 10 10 10 10 10 10 9 9 9 9 9 9 9 9 8 8 8 8 8 8 8 7 8 8 8 8 8 8 8 8 8 8
13 13 13 12 12 12 12 12 11 11 11 10 10 10 10 9 9 9 9 9 9 9 9 9 8 8 8 8 8 8 7 7 7 7 7 7 7 8 8 8 8 7 7
13 13 13 12 12 12 12 12 11 11 11 11 10 10 10 9 9 9 9 9 9 9 8 8 8 8 8 7 7 7 7 7 7 7 7 7 7 7 7 7 7 7 7
13 12 12 12 12 12 11 11 11 11 11 10 10 9 9 9 9 9 9 9 8 8 8 8 8 7 7 7 7 7 7 7 7 7 7 7 7 7 7 7 7 7 7
12 12 12 12 12 11 11 11 11 11 11 10 10 9 9 9 9 9 9 8 8 8 8 7 7 7 7 7 7 7 7 7 6 6 6 6 6 6 6 6 6 6 6
12 12 12 11 11 11 11 11 11 10 10 10 10 9 9 9 9 8 8 8 8 7 7 7 7 7 7 6 6 6 6 6 6 6 6 6 6 6 6 6 6 6 6
12 12 11 11 11 11 10 10 10 10 10 10 9 9 9 8 8 8 8 8 7 7 7 7 6 6 6 6 6 6 6 6 6 5 5 5 6 6 6 6 6 6 6
11 11 11 11 11 11 10 10 10 10 10 9 9 9 9 8 8 8 8 7 7 7 7 6 6 6 6 6 6 6 6 6 5 5 5 5 5 5 5 5 5 5 5
11 11 11 11 10 10 10 10 10 9 9 9 9 9 9 8 8 8 8 7 7 7 6 6 6 6 6 5 5 5 5 5 5 5 5 5 5 5 5 5 5 5 5
Wind_Speed
5 4 3 3 3 3 2 1 1 1 1 1 1 1 2 2 2 2 2 2 2 2 2 1 1 2 1 1 2 2 2 2 2 1 2 3 3 3 4 4 5 7 10
5 5 4 4 3 3 3 2 2 1 1 1 1 2 2 3 3 3 3 3 3 3 3 3 2 1 1 1 1 0 1 1 2 2 2 2 3 4 4 3 4 6 8
6 5 5 4 4 3 3 2 2 2 2 2 2 2 3 3 3 3 3 4 4 4 5 5 4 3 2 2 1 1 1 1 2 3 2 2 2 3 4 4 4 4 5
6 6 5 4 4 4 3 3 3 3 3 3 3 3 3 4 4 4 4 4 5 6 7 6 6 5 4 3 2 2 1 2 3 3 3 3 3 3 2 2 3 3 3
6 6 5 5 5 4 4 4 4 3 3 4 4 4 4 4 4 4 4 5 6 7 7 8 8 9 10 7 4 4 3 2 3 3 3 2 2 2 1 1 2 2 3
6 6 5 5 5 5 5 5 5 5 5 5 5 5 5 5 7 8 4 5 6 7 7 7 8 8 9 9 10 10 8 4 3 3 3 3 2 2 1 0 1 1 1
6 6 6 5 5 5 5 5 5 5 5 5 5 6 6 7 8 7 6 6 7 7 8 7 7 8 7 8 9 9 10 8 6 4 4 4 3 2 2 2 2 2 2
7 6 6 5 5 5 5 6 5 5 5 6 6 6 6 7 7 6 6 7 8 8 8 8 8 9 9 7 8 9 9 9 8 6 6 5 5 4 2 1 2 2 2
7 7 6 6 6 5 5 5 5 6 6 6 6 7 7 7 7 6 4 6 8 9 9 9 8 9 11 9 7 8 8 8 11 12 10 8 8 7 5 1 1 0 1
7 7 6 6 6 6 6 6 6 6 6 7 8 7 8 7 8 8 6 5 7 7 8 9 12 10 10 10 7 7 7 6 6 6 6 5 6 6 5 5 3 2 1
8 7 6 6 6 6 6 6 6 6 7 8 8 7 7 7 8 9 8 4 5 6 6 7 8 9 9 9 7 6 5 3 3 4 4 4 4 4 4 5 5 4 4
8 8 8 7 6 6 7 7 6 7 8 7 7 7 6 6 7 8 9 8 6 6 6 6 7 6 7 8 6 5 4 3 3 3 3 3 3 3 4 4 5 5 4
10 9 8 8 6 6 7 7 6 5 5 5 5 6 6 6 6 8 8 7 7 6 7 8 5 3 3 5 5 3 3 2 3 3 4 4 4 4 3 2 2 2 2
10 9 8 8 7 7 5 5 4 4 4 4 5 5 5 5 4 4 5 5 6 5 5 6 5 2 2 4 2 2 4 5 4 3 3 3 3 3 3 4 3 2 2
9 9 8 7 8 7 5 4 3 4 3 2 4 4 4 4 4 5 2 3 3 3 2 3 3 2 2 3 3 3 3 3 3 3 3 3 2 3 3 3 3 3 3
9 8 7 7 7 7 7 7 11 9 10 10 9 5 6 8 7 7 6 6 4 2 1 2 2 2 2 2 2 2 3 4 3 3 3 3 3 3 3 3 3 4 4
8 7 6 6 7 7 7 7 7 6 8 9 8 8 8 8 7 6 5 4 2 2 1 2 2 2 2 2 2 2 3 3 3 3 3 3 3 4 3 3 3 4 4
8 8 7 6 6 6 7 6 6 7 7 6 6 7 7 7 6 5 4 4 3 2 1 2 2 1 1 2 2 2 2 2 2 2 2 3 3 4 4 4 4 5 5
8 7 6 6 6 6 6 6 6 6 6 6 7 6 6 7 7 4 3 1 1 2 1 1 1 1 1 1 2 2 2 2 3 3 3 3 4 4 4 5 4 3 5
6 7 7 6 6 7 6 6 6 6 6 6 5 5 6 5 4 4 3 1 0 1 1 1 1 1 1 1 1 2 2 2 2 3 3 4 4 4 5 5 6 5 5
7 8 8 7 6 6 6 6 6 6 6 5 5 4 2 4 4 3 2 2 1 1 0 0 0 1 1 1 1 2 2 2 3 4 4 4 5 5 5 5 5 6 6
7 8 7 6 6 6 6 5 5 5 6 6 5 6 4 3 2 3 2 2 1 1 1 1 1 1 1 1 2 2 3 3 4 4 4 4 4 5 5 5 6 6 6
7 8 7 6 6 6 6 5 5 5 5 5 5 5 5 3 3 2 2 1 1 1 1 1 1 1 1 1 2 2 3 4 4 5 6 6 6 5 5 5 6 7 7
7 8 7 7 6 6 5 5 5 5 5 5 4 4 4 4 3 3 2 2 1 1 1 1 0 1 1 2 2 2 3 4 6 6 7 7 7 6 6 6 7 8 7
7 7 7 6 6 6 6 5 5 5 4 4 4 4 4 4 3 3 3 2 2 2 1 1 0 1 1 2 2 3 4 4 6 7 7 7 7 7 7 8 7 8 8
7 7 6 6 6 5 5 5 5 5 4 4 4 4 4 4 3 3 3 2 2 2 2 1 1 2 2 2 1 2 2 4 6 9 9 8 7 6 7 8 9 9 9
Wind_Direction
159 157 155 155 154 153 154 144 114 67 48 30 32 36 32 27 30 33 18 3 6 3 348 338 329 309 293 271 254 247 231 209 200 166 82 81 76 75 82 89 94 87 81
145 142 142 142 142 138 130 118 119 110 84 69 60 48 47 47 43 40 29 28 27 21 12 8 353 333 338 321 301 249 155 168 168 155 110 92 92 97 91 85 83 88 93
138 135 130 133 130 120 115 110 111 110 92 73 66 56 48 52 53 49 46 45 42 37 30 27 20 22 27 39 24 45 110 133 135 143 129 99 97 92 91 85 79 68 86
130 128 127 127 127 125 120 115 114 112 99 84 75 66 61 60 59 60 59 59 58 53 48 42 35 34 33 39 53 52 87 114 114 126 125 114 107 92 85 87 90 80 66
130 126 124 128 125 122 119 112 106 106 105 97 92 85 75 68 56 58 72 70 68 65 59 54 53 53 47 41 40 41 56 79 104 112 113 108 95 95 90 100 95 97 80
132 127 125 126 130 125 118 112 105 99 93 92 88 83 74 63 41 35 50 77 74 69 64 63 66 62 68 67 62 56 47 56 75 87 95 99 87 87 85 86 77 61 68
132 129 131 132 128 122 118 110 105 102 99 95 89 86 81 63 49 46 42 75 73 67 63 58 59 58 58 71 78 80 66 54 47 53 70 58 65 55 32 62 58 44 44
136 134 133 132 126 122 114 106 105 105 101 98 94 91 86 70 53 48 48 79 75 70 64 61 62 57 50 51 70 70 65 59 56 60 60 48 47 40 44 74 107 134 128
140 140 139 136 131 127 118 112 113 112 107 102 97 92 87 76 48 33 26 89 82 75 66 57 57 63 32 20 66 73 75 79 77 77 73 74 66 46 13 17 56 114 97
141 139 136 135 133 129 121 115 113 113 110 105 97 90 87 79 53 29 3 91 89 88 81 72 56 48 35 20 62 68 69 67 72 86 88 94 81 70 46 13 359 352 359
136 132 131 130 130 127 120 112 116 117 110 103 101 95 88 82 74 46 19 66 88 89 84 78 66 49 44 31 39 61 46 31 75 81 84 80 74 63 54 43 17 2 2
135 133 134 135 134 128 121 117 117 119 119 115 113 107 99 90 75 67 48 38 32 83 81 80 78 62 58 46 51 35 337 313 70 72 65 57 49 45 50 46 37 28 20
133 130 128 127 124 125 126 128 129 133 132 129 127 120 111 107 101 91 81 63 46 71 79 77 86 101 123 92 65 353 334 34 52 56 52 46 41 35 30 57 72 70 65
137 134 133 132 127 121 123 130 134 135 135 133 130 124 121 120 114 118 123 122 127 113 107 123 140 118 93 83 102 53 45 34 26 41 43 40 35 33 19 9 3 1 6
143 141 141 138 131 123 109 82 98 83 66 95 124 128 129 124 88 48 64 100 94 91 125 131 117 108 92 76 65 47 32 33 27 22 23 27 22 19 15 9 355 342 343
150 150 148 145 141 138 128 108 59 65 68 58 45 57 92 88 103 93 78 67 54 354 293 110 96 75 63 57 47 47 38 26 13 10 12 9 360 351 351 353 345 340 337
154 151 148 148 149 148 144 140 132 103 81 72 66 67 86 108 113 115 114 117 128 252 150 94 82 66 46 39 33 23 23 27 354 350 357 356 347 338 339 339 337 335 331
157 150 153 156 157 155 151 150 148 147 144 133 106 102 116 124 129 138 162 184 149 160 96 82 80 67 45 22 21 10 4 4 346 338 348 350 344 340 340 336 338 342 327
161 158 156 153 153 153 153 154 151 150 145 141 139 133 143 150 153 168 215 216 121 122 106 87 53 37 34 30 9 355 349 351 350 329 339 340 336 333 336 331 333 341 312
154 145 152 155 158 159 160 159 155 155 153 152 153 147 155 168 154 151 165 168 152 108 95 97 59 12 2 357 343 329 327 343 332 314 329 326 325 324 326 322 324 323 320
152 153 161 163 160 160 160 163 163 164 160 158 150 133 181 177 156 146 151 158 174 160 147 127 146 265 292 307 314 317 319 330 331 326 328 326 326 326 322 321 321 319 323
157 160 166 164 159 160 163 166 164 160 159 156 149 147 174 196 165 166 166 165 177 177 168 223 255 298 337 326 331 329 323 330 334 329 325 318 312 314 317 319 322 322 320
159 157 157 155 152 152 164 162 157 158 159 159 156 154 161 173 173 173 179 180 181 180 176 219 277 342 14 339 327 329 333 337 334 328 317 312 311 312 312 314 312 312 317
161 161 159 157 156 159 161 159 159 160 159 155 156 160 165 172 177 178 189 179 176 165 161 179 240 13 348 314 302 319 2 349 327 311 308 306 308 311 310 310 310 314 312
160 161 159 157 158 160 160 161 160 160 159 158 161 165 166 171 177 179 178 169 176 168 170 185 213 272 280 284 305 341 20 352 322 312 298 292 299 306 308 308 308 308 307
159 159 158 157 158 160 162 164 165 166 165 165 169 171 176 182 181 178 177 175 185 178 202 221 249 268 274 268 293 344 342 315 306 305 298 294 297 303 311 305 305 301 301
Height
1549 1550 1551 1552 1553 1553 1554 1554 1554 1554 1554 1553 1553 1553 1552 1551 1551 1550 1549 1549 1549 1548 1547 1546 1545 1545 1545 1546 1546 1547 1547 1548 1549 1550 1550 1550 1550 1550 1550 1550 1550 1549 1548
1549 1549 1550 1551 1551 1552 1552 1553 1553 1553 1553 1552 1552 1551 1551 1550 1550 1549 1549 1548 1547 1547 1546 1545 1544 1544 1543 1544 1545 1545 1546 1546 1547 1548 1548 1549 1548 1549 1549 1549 1549 1548 1547
1548 1549 1549 1550 1550 1551 1551 1551 1551 1552 1552 1551 1551 1550 1550 1550 1549 1549 1548 1548 1547 1546 1545 1545 1543 1543 1542 1543 1543 1544 1545 1546 1546 1547 1547 1547 1548 1547 1547 1548 1548 1547 1547
1547 1548 1549 1550 1550 1550 1550 1551 1551 1551 1551 1551 1550 1550 1549 1549 1549 1549 1549 1548 1547 1546 1545 1544 1543 1542 1542 1542 1542 1543 1543 1544 1545 1546 1546 1547 1547 1546 1547 1547 1547 1547 1547
1547 1548 1549 1549 1550 1550 1550 1550 1550 1550 1550 1550 1550 1550 1549 1550 1549 1549 1549 1548 1547 1547 1546 1545 1544 1543 1542 1542 1542 1542 1543 1544 1545 1545 1545 1546 1546 1546 1546 1546 1546 1546 1546
1547 1548 1548 1549 1549 1549 1550 1550 1550 1550 1550 1550 1550 1550 1550 1550 1550 1549 1549 1549 1548 1547 1546 1546 1545 1544 1543 1542 1542 1542 1542 1543 1544 1544 1545 1545 1545 1546 1545 1546 1546 1545 1545
1546 1547 1548 1548 1549 1549 1550 1549 1549 1549 1550 1550 1550 1550 1550 1550 1550 1550 1550 1549 1549 1548 1547 1547 1546 1545 1544 1544 1543 1543 1542 1543 1544 1545 1545 1545 1545 1545 1545 1545 1544 1544 1544
1545 1546 1547 1548 1549 1549 1549 1549 1549 1549 1550 1550 1550 1550 1550 1550 1550 1550 1550 1550 1550 1549 1549 1548 1548 1547 1546 1546 1545 1544 1544 1544 1544 1545 1545 1545 1545 1544 1544 1544 1544 1543 1543
1544 1546 1547 1548 1548 1548 1549 1549 1549 1549 1550 1551 1551 1551 1551 1551 1551 1551 1551 1552 1551 1551 1550 1550 1549 1549 1548 1547 1547 1546 1546 1546 1546 1546 1546 1545 1545 1544 1544 1545 1544 1544 1544
1543 1545 1546 1547 1547 1548 1548 1548 1549 1550 1550 1551 1552 1552 1552 1552 1552 1552 1553 1553 1553 1553 1552 1551 1550 1550 1549 1549 1549 1548 1548 1548 1549 1548 1547 1547 1546 1545 1544 1544 1544 1544 1544
1542 1544 1545 1546 1547 1548 1548 1548 1549 1550 1551 1552 1552 1553 1553 1553 1553 1553 1554 1554 1555 1555 1555 1554 1553 1552 1551 1550 1550 1549 1549 1550 1550 1550 1549 1549 1548 1547 1546 1544 1543 1543 1543
1541 1542 1544 1545 1547 1548 1548 1549 1549 1550 1551 1552 1553 1554 1555 1555 1555 1555 1555 1555 1555 1556 1556 1555 1554 1554 1553 1552 1552 1551 1551 1551 1552 1552 1551 1550 1549 1548 1547 1545 1544 1543 1542
1540 1542 1544 1545 1546 1547 1548 1549 1550 1551 1553 1554 1555 1556 1556 1556 1556 1556 1556 1557 1556 1556 1556 1556 1556 1555 1555 1555 1554 1553 1553 1553 1553 1553 1552 1551 1550 1548 1547 1546 1545 1543 1542
1540 1541 1543 1545 1546 1547 1549 1551 1552 1553 1554 1555 1556 1556 1557 1557 1557 1558 1558 1558 1558 1558 1558 1557 1557 1557 1557 1556 1556 1555 1555 1554 1554 1553 1552 1552 1550 1549 1548 1547 1546 1545 1544
1540 1541 1543 1545 1546 1547 1549 1550 1552 1552 1553 1555 1556 1556 1557 1558 1557 1557 1558 1559 1559 1559 1559 1559 1559 1559 1558 1558 1557 1556 1556 1555 1554 1554 1553 1552 1551 1550 1549 1547 1546 1545 1544
1539 1541 1543 1544 1546 1548 1549 1550 1551 1552 1553 1554 1554 1556 1556 1557 1557 1557 1558 1558 1558 1558 1560 1560 1560 1559 1559 1558 1558 1557 1556 1555 1554 1553 1553 1552 1551 1550 1549 1547 1546 1545 1543
1538 1540 1542 1544 1545 1547 1548 1550 1551 1552 1553 1554 1555 1555 1556 1557 1557 1558 1558 1558 1559 1559 1560 1560 1559 1559 1559 1558 1558 1557 1556 1555 1554 1553 1553 1552 1551 1549 1548 1547 1546 1544 1543
1537 1539 1541 1543 1545 1547 1548 1549 1551 1552 1554 1554 1555 1556 1556 1557 1557 1558 1558 1559 1559 1559 1559 1559 1559 1559 1559 1558 1558 1557 1556 1555 1554 1553 1553 1551 1550 1549 1548 1546 1545 1543 1542
1536 1538 1540 1542 1544 1546 1547 1549 1551 1552 1554 1555 1555 1556 1556 1557 1557 1558 1558 1559 1560 1560 1559 1559 1559 1559 1558 1558 1557 1556 1556 1555 1554 1553 1552 1551 1550 1548 1547 1545 1544 1542 1540
1535 1537 1539 1541 1542 1544 1546 1548 1550 1551 1553 1554 1555 1555 1556 1557 1558 1558 1558 1558 1559 1559 1559 1559 1558 1558 1557 1557 1556 1556 1555 1554 1553 1552 1551 1550 1549 1547 1546 1544 1543 1541 1539
1533 1535 1537 1539 1541 1542 1544 1546 1548 1550 1551 1552 1553 1553 1554 1556 1557 1557 1558 1558 1558 1558 1558 1558 1557 1557 1557 1556 1556 1555 1555 1554 1553 1552 1550 1549 1548 1546 1545 1543 1541 1540 1538
1532 1534 1536 1538 1539 1541 1543 1545 1547 1548 1549 1551 1551 1552 1553 1554 1555 1556 1556 1556 1557 1556 1556 1556 1556 1556 1556 1555 1555 1554 1553 1552 1551 1550 1549 1547 1546 1545 1543 1541 1540 1538 1536
1531 1533 1535 1536 1538 1539 1542 1544 1545 1547 1548 1549 1550 1551 1552 1553 1554 1554 1555 1555 1555 1555 1555 1554 1555 1555 1554 1553 1553 1552 1552 1550 1549 1548 1547 1546 1545 1543 1542 1540 1538 1537 1535
1530 1532 1534 1535 1537 1539 1541 1542 1544 1545 1546 1548 1549 1550 1551 1551 1552 1553 1553 1553 1554 1554 1553 1553 1553 1553 1552 1551 1551 1551 1549 1547 1546 1545 1544 1543 1542 1541 1540 1538 1536 1535 1533
1529 1531 1533 1534 1536 1537 1539 1541 1543 1544 1545 1546 1548 1549 1550 1551 1551 1552 1552 1552 1552 1552 1552 1552 1551 1551 1550 1549 1549 1548 1546 1545 1544 1543 1542 1541 1540 1539 1537 1536 1534 1532 1531
1528 1530 1531 1533 1534 1536 1538 1540 1541 1543 1544 1545 1547 1548 1549 1549 1550 1550 1551 1551 1551 1551 1550 1550 1550 1549 1548 1547 1546 1545 1544 1543 1542 1540 1539 1539 1538 1537 1535 1533 1532 1530 1528